Location: Three Guys Observatory
(38.6418°N, 87.1521°W)
Time: 06:20:44
(UTC-04:00)

ISS - Visible Passes

Search period start: 02 August 2015 00:00
Search period end: 12 August 2015 00:00
Orbit: 401 x 403 km, 51.6° (Epoch: 02 August)

Date Brightness Start Highest point End Pass type
(mag) Time Alt. Az. Time Alt. Az. Time Alt. Az.
02 Aug -0.7 04:42:22 12° SE 04:42:22 12° SE 04:42:43 10° SE visible
02 Aug -0.6 22:51:38 10° WNW 22:54:11 21° NNW 22:56:44 10° NNE visible
03 Aug -1.4 21:58:01 10° W 22:01:00 33° NNW 22:04:00 10° NE visible
03 Aug 0.2 23:37:32 10° NNW 23:38:14 10° NNW 23:38:55 10° N visible
04 Aug -0.2 22:43:09 10° NW 22:44:53 13° NNW 22:46:35 10° NNE visible
05 Aug -0.4 21:49:10 10° WNW 21:51:34 19° NNW 21:53:58 10° NNE visible
07 Aug -0.3 21:40:43 10° NW 21:42:13 12° NNW 21:43:42 10° N visible
09 Aug 0.0 00:02:20 10° NNW 00:02:58 12° N 00:02:58 12° N visible
09 Aug -0.3 23:10:02 10° N 23:10:35 10° NNE 23:11:08 10° NNE visible
10 Aug -0.2 23:52:03 10° NNW 23:52:53 14° NNW 23:52:53 14° NNW visible
11 Aug -0.7 22:59:21 10° NNW 23:01:11 14° NNE 23:01:35 14° NNE visible
